Time,TemperatureF,DewpointF,PressureIn,WindDirection,WindDirectionDegrees,WindSpeedMPH,WindSpeedGustMPH,Humidity,HourlyPrecipIn,Conditions,Clouds,dailyrainin,SoftwareType,DateUTC
2013-09-21 00:00:00,58.0,51.2,29.76,NW,318,6.0,6.0,78,0.00,,,0.00,Wunderground v.1.15,2013-09-21 05:00:00,
2013-09-21 00:05:00,57.9,51.4,29.76,NNW,329,5.0,8.0,79,0.00,,,0.00,Wunderground v.1.15,2013-09-21 05:05:00,
2013-09-21 00:10:00,57.8,51.3,29.76,NW,325,5.0,8.0,79,0.00,,,0.00,Wunderground v.1.15,2013-09-21 05:10:00,
2013-09-21 00:15:00,57.6,51.1,29.76,North,5,5.0,8.0,79,0.00,,,0.00,Wunderground v.1.15,2013-09-21 05:15:00,
2013-09-21 00:20:00,57.5,51.0,29.76,NW,315,4.0,4.0,79,0.00,,,0.00,Wunderground v.1.15,2013-09-21 05:20:00,
2013-09-21 00:25:00,57.2,51.1,29.76,NNW,341,4.0,5.0,80,0.00,,,0.00,Wunderground v.1.15,2013-09-21 05:25:00,
2013-09-21 00:30:00,57.0,50.9,29.76,NW,325,4.0,4.0,80,0.00,,,0.00,Wunderground v.1.15,2013-09-21 05:30:00,
2013-09-21 00:35:00,56.8,51.0,29.76,WNW,296,4.0,8.0,81,0.00,,,0.00,Wunderground v.1.15,2013-09-21 05:35:00,
2013-09-21 00:40:00,56.6,50.8,29.76,NNW,340,3.0,8.0,81,0.00,,,0.00,Wunderground v.1.15,2013-09-21 05:40:00,
2013-09-21 00:45:00,56.5,50.7,29.76,NW,315,4.0,8.0,81,0.00,,,0.00,Wunderground v.1.15,2013-09-21 05:45:00,
2013-09-21 00:55:00,56.3,50.9,29.76,NW,315,4.0,8.0,82,0.00,,,0.00,Wunderground v.1.15,2013-09-21 05:55:00,
2013-09-21 01:00:00,56.2,50.8,29.76,North,351,4.0,4.0,82,0.00,,,0.00,Wunderground v.1.15,2013-09-21 06:00:00,
2013-09-21 01:05:00,56.0,50.6,29.76,NNW,331,4.0,8.0,82,0.00,,,0.00,Wunderground v.1.15,2013-09-21 06:05:00,
2013-09-21 01:10:00,55.9,50.8,29.76,NNW,333,3.0,3.0,83,0.00,,,0.00,Wunderground v.1.15,2013-09-21 06:10:00,
2013-09-21 01:15:00,55.7,50.6,29.76,NW,306,3.0,8.0,83,0.00,,,0.00,Wunderground v.1.15,2013-09-21 06:15:00,
2013-09-21 01:20:00,55.6,50.5,29.76,NNW,331,3.0,3.0,83,0.00,,,0.00,Wunderground v.1.15,2013-09-21 06:20:00,
2013-09-21 01:25:00,55.4,50.6,29.77,NNW,328,2.0,8.0,84,0.00,,,0.00,Wunderground v.1.15,2013-09-21 06:25:00,
2013-09-21 01:30:00,55.2,50.4,29.77,NW,324,2.0,8.0,84,0.00,,,0.00,Wunderground v.1.15,2013-09-21 06:30:00,
2013-09-21 01:35:00,55.1,50.4,29.77,NNW,331,3.0,8.0,84,0.00,,,0.00,Wunderground v.1.15,2013-09-21 06:35:00,
2013-09-21 01:40:00,54.9,50.2,29.77,NW,304,2.0,2.0,84,0.00,,,0.00,Wunderground v.1.15,2013-09-21 06:40:00,
2013-09-21 01:45:00,54.6,50.2,29.77,NW,308,2.0,8.0,85,0.00,,,0.00,Wunderground v.1.15,2013-09-21 06:45:00,
2013-09-21 01:50:00,54.4,50.0,29.77,WNW,298,1.0,8.0,85,0.00,,,0.00,Wunderground v.1.15,2013-09-21 06:50:00,
2013-09-21 01:55:00,54.0,49.6,29.77,WNW,294,2.0,8.0,85,0.00,,,0.00,Wunderground v.1.15,2013-09-21 06:55:00,
2013-09-21 02:00:00,53.8,49.7,29.77,WNW,293,2.0,8.0,86,0.00,,,0.00,Wunderground v.1.15,2013-09-21 07:00:00,
2013-09-21 02:05:00,53.5,49.4,29.77,WNW,298,2.0,8.0,86,0.00,,,0.00,Wunderground v.1.15,2013-09-21 07:05:00,
2013-09-21 02:10:00,53.3,49.5,29.77,NW,311,3.0,8.0,87,0.00,,,0.00,Wunderground v.1.15,2013-09-21 07:10:00,
2013-09-21 02:15:00,53.3,49.5,29.77,WNW,292,3.0,8.0,87,0.00,,,0.00,Wunderground v.1.15,2013-09-21 07:15:00,
2013-09-21 02:20:00,53.2,49.4,29.77,NW,312,3.0,8.0,87,0.00,,,0.00,Wunderground v.1.15,2013-09-21 07:20:00,
2013-09-21 02:25:00,53.1,49.3,29.77,NW,309,3.0,8.0,87,0.00,,,0.00,Wunderground v.1.15,2013-09-21 07:25:00,
2013-09-21 02:30:00,52.9,49.4,29.77,WNW,301,2.0,8.0,88,0.00,,,0.00,Wunderground v.1.15,2013-09-21 07:30:00,
2013-09-21 02:35:00,52.8,49.3,29.77,WNW,296,2.0,8.0,88,0.00,,,0.00,Wunderground v.1.15,2013-09-21 07:35:00,
2013-09-21 02:40:00,52.7,48.9,29.77,WNW,291,2.0,8.0,87,0.00,,,0.00,Wunderground v.1.15,2013-09-21 07:40:00,
2013-09-21 02:45:00,52.5,49.0,29.77,NW,309,3.0,8.0,88,0.00,,,0.00,Wunderground v.1.15,2013-09-21 07:45:00,
2013-09-21 02:50:00,52.3,48.9,29.77,WNW,298,3.0,8.0,88,0.00,,,0.00,Wunderground v.1.15,2013-09-21 07:50:00,
2013-09-21 02:55:00,52.2,48.8,29.77,WNW,290,2.0,8.0,88,0.00,,,0.00,Wunderground v.1.15,2013-09-21 07:55:00,
2013-09-21 03:00:00,52.0,48.6,29.77,WNW,294,2.0,8.0,88,0.00,,,0.00,Wunderground v.1.15,2013-09-21 08:00:00,
2013-09-21 03:05:00,51.8,48.4,29.76,NW,311,2.0,8.0,88,0.00,,,0.00,Wunderground v.1.15,2013-09-21 08:05:00,
2013-09-21 03:10:00,51.8,48.4,29.76,NW,311,1.0,8.0,88,0.00,,,0.00,Wunderground v.1.15,2013-09-21 08:10:00,
2013-09-21 03:15:00,51.7,48.6,29.76,WNW,302,1.0,8.0,89,0.00,,,0.00,Wunderground v.1.15,2013-09-21 08:15:00,
2013-09-21 03:20:00,51.5,48.1,29.77,WNW,293,1.0,8.0,88,0.00,,,0.00,Wunderground v.1.15,2013-09-21 08:20:00,
2013-09-21 03:25:00,51.2,48.1,29.77,WNW,293,2.0,8.0,89,0.00,,,0.00,Wunderground v.1.15,2013-09-21 08:25:00,
2013-09-21 03:30:00,51.1,48.0,29.77,WNW,293,1.0,8.0,89,0.00,,,0.00,Wunderground v.1.15,2013-09-21 08:30:00,
2013-09-21 03:35:00,50.9,48.1,29.76,WNW,293,0.0,8.0,90,0.00,,,0.00,Wunderground v.1.15,2013-09-21 08:35:00,
2013-09-21 03:40:00,50.9,48.1,29.76,WNW,293,0.0,8.0,90,0.00,,,0.00,Wunderground v.1.15,2013-09-21 08:40:00,
2013-09-21 03:45:00,50.6,47.5,29.76,WNW,293,0.0,8.0,89,0.00,,,0.00,Wunderground v.1.15,2013-09-21 08:45:00,
2013-09-21 03:50:00,50.1,47.0,29.76,WNW,293,0.0,8.0,89,0.00,,,0.00,Wunderground v.1.15,2013-09-21 08:50:00,
2013-09-21 03:55:00,49.8,47.0,29.76,WNW,293,0.0,8.0,90,0.00,,,0.00,Wunderground v.1.15,2013-09-21 08:55:00,
2013-09-21 04:00:00,49.7,47.2,29.77,WNW,293,0.0,8.0,91,0.00,,,0.00,Wunderground v.1.15,2013-09-21 09:00:00,
2013-09-21 04:05:00,49.8,47.3,29.77,WNW,293,0.0,8.0,91,0.00,,,0.00,Wunderground v.1.15,2013-09-21 09:05:00,
2013-09-21 04:10:00,49.8,47.3,29.77,WNW,293,0.0,8.0,91,0.00,,,0.00,Wunderground v.1.15,2013-09-21 09:10:00,
2013-09-21 04:15:00,49.7,47.2,29.77,WNW,288,0.0,8.0,91,0.00,,,0.00,Wunderground v.1.15,2013-09-21 09:15:00,
2013-09-21 04:20:00,49.7,47.2,29.77,West,281,1.0,8.0,91,0.00,,,0.00,Wunderground v.1.15,2013-09-21 09:20:00,
2013-09-21 04:25:00,49.6,47.1,29.77,West,281,1.0,8.0,91,0.00,,,0.00,Wunderground v.1.15,2013-09-21 09:25:00,
2013-09-21 04:30:00,49.4,46.9,29.77,West,274,2.0,8.0,91,0.00,,,0.00,Wunderground v.1.15,2013-09-21 09:30:00,
2013-09-21 04:35:00,49.2,46.7,29.77,West,277,2.0,8.0,91,0.00,,,0.00,Wunderground v.1.15,2013-09-21 09:35:00,
2013-09-21 04:45:00,49.2,47.0,29.77,West,280,2.0,8.0,92,0.00,,,0.00,Wunderground v.1.15,2013-09-21 09:45:00,
2013-09-21 04:50:00,49.2,47.0,29.77,West,276,2.0,8.0,92,0.00,,,0.00,Wunderground v.1.15,2013-09-21 09:50:00,
2013-09-21 04:55:00,49.2,47.0,29.78,West,276,2.0,8.0,92,0.00,,,0.00,Wunderground v.1.15,2013-09-21 09:55:00,
2013-09-21 05:00:00,49.1,46.9,29.78,West,275,2.0,2.0,92,0.00,,,0.00,Wunderground v.1.15,2013-09-21 10:00:00,
2013-09-21 05:05:00,49.1,46.9,29.78,West,277,2.0,8.0,92,0.00,,,0.00,Wunderground v.1.15,2013-09-21 10:05:00,
2013-09-21 05:10:00,48.9,46.7,29.78,West,266,2.0,8.0,92,0.00,,,0.00,Wunderground v.1.15,2013-09-21 10:10:00,
2013-09-21 05:15:00,48.8,46.6,29.78,West,274,2.0,8.0,92,0.00,,,0.00,Wunderground v.1.15,2013-09-21 10:15:00,
2013-09-21 05:20:00,48.7,46.5,29.78,WNW,285,2.0,8.0,92,0.00,,,0.00,Wunderground v.1.15,2013-09-21 10:20:00,
2013-09-21 05:25:00,48.7,46.5,29.78,WNW,282,2.0,8.0,92,0.00,,,0.00,Wunderground v.1.15,2013-09-21 10:25:00,
2013-09-21 05:30:00,48.6,46.7,29.78,West,268,1.0,8.0,93,0.00,,,0.00,Wunderground v.1.15,2013-09-21 10:30:00,
2013-09-21 05:35:00,48.6,46.4,29.78,West,265,2.0,8.0,92,0.00,,,0.00,Wunderground v.1.15,2013-09-21 10:35:00,
2013-09-21 05:40:00,48.5,46.6,29.79,West,278,2.0,8.0,93,0.00,,,0.00,Wunderground v.1.15,2013-09-21 10:40:00,
2013-09-21 05:45:00,48.5,46.6,29.79,West,270,2.0,8.0,93,0.00,,,0.00,Wunderground v.1.15,2013-09-21 10:45:00,
2013-09-21 05:50:00,48.3,46.4,29.79,West,275,2.0,8.0,93,0.00,,,0.00,Wunderground v.1.15,2013-09-21 10:50:00,
2013-09-21 05:55:00,48.2,46.3,29.79,WNW,283,2.0,8.0,93,0.00,,,0.00,Wunderground v.1.15,2013-09-21 10:55:00,
2013-09-21 06:00:00,48.2,46.3,29.79,West,271,2.0,2.0,93,0.00,,,0.00,Wunderground v.1.15,2013-09-21 11:00:00,
2013-09-21 06:05:00,48.3,46.4,29.79,WNW,284,1.0,8.0,93,0.00,,,0.00,Wunderground v.1.15,2013-09-21 11:05:00,
2013-09-21 06:10:00,48.3,46.4,29.79,WNW,299,1.0,8.0,93,0.00,,,0.00,Wunderground v.1.15,2013-09-21 11:10:00,
2013-09-21 06:15:00,48.4,46.5,29.79,WNW,284,1.0,8.0,93,0.00,,,0.00,Wunderground v.1.15,2013-09-21 11:15:00,
2013-09-21 06:25:00,48.4,46.5,29.79,West,271,2.0,8.0,93,0.00,,,0.00,Wunderground v.1.15,2013-09-21 11:25:00,
2013-09-21 06:35:00,48.3,46.4,29.80,West,275,2.0,8.0,93,0.00,,,0.00,Wunderground v.1.15,2013-09-21 11:35:00,
2013-09-21 06:40:00,48.2,46.3,29.80,West,276,2.0,8.0,93,0.00,,,0.00,Wunderground v.1.15,2013-09-21 11:40:00,
2013-09-21 06:45:00,48.1,46.2,29.80,West,263,3.0,8.0,93,0.00,,,0.00,Wunderground v.1.15,2013-09-21 11:45:00,
2013-09-21 06:50:00,48.1,46.2,29.80,NW,305,3.0,8.0,93,0.00,,,0.00,Wunderground v.1.15,2013-09-21 11:50:00,
2013-09-21 06:55:00,48.1,46.2,29.80,WNW,286,2.0,8.0,93,0.00,,,0.00,Wunderground v.1.15,2013-09-21 11:55:00,
2013-09-21 07:00:00,48.2,46.3,29.80,West,277,2.0,8.0,93,0.00,,,0.00,Wunderground v.1.15,2013-09-21 12:00:00,
2013-09-21 07:05:00,48.1,46.2,29.80,WNW,288,2.0,8.0,93,0.00,,,0.00,Wunderground v.1.15,2013-09-21 12:05:00,
2013-09-21 07:10:00,48.1,46.2,29.80,West,267,3.0,8.0,93,0.00,,,0.00,Wunderground v.1.15,2013-09-21 12:10:00,
2013-09-21 07:15:00,48.1,46.2,29.80,WNW,282,2.0,8.0,93,0.00,,,0.00,Wunderground v.1.15,2013-09-21 12:15:00,
2013-09-21 07:20:00,48.0,46.1,29.80,WNW,285,2.0,2.0,93,0.00,,,0.00,Wunderground v.1.15,2013-09-21 12:20:00,
2013-09-21 07:25:00,48.0,46.1,29.80,WNW,283,2.0,8.0,93,0.00,,,0.00,Wunderground v.1.15,2013-09-21 12:25:00,
2013-09-21 07:30:00,48.1,46.2,29.80,WNW,284,3.0,8.0,93,0.00,,,0.00,Wunderground v.1.15,2013-09-21 12:30:00,
2013-09-21 07:40:00,48.3,46.4,29.80,WNW,293,3.0,3.0,93,0.00,,,0.00,Wunderground v.1.15,2013-09-21 12:40:00,
2013-09-21 07:45:00,48.4,46.5,29.80,WNW,289,3.0,8.0,93,0.00,,,0.00,Wunderground v.1.15,2013-09-21 12:45:00,
2013-09-21 07:50:00,48.5,46.6,29.81,NW,311,3.0,8.0,93,0.00,,,0.00,Wunderground v.1.15,2013-09-21 12:50:00,
2013-09-21 07:55:00,48.7,46.8,29.81,WNW,286,3.0,8.0,93,0.00,,,0.00,Wunderground v.1.15,2013-09-21 12:55:00,
2013-09-21 08:00:00,49.1,47.2,29.80,NW,321,3.0,8.0,93,0.00,,,0.00,Wunderground v.1.15,2013-09-21 13:00:00,
2013-09-21 08:05:00,49.4,47.5,29.80,NNW,330,4.0,8.0,93,0.00,,,0.00,Wunderground v.1.15,2013-09-21 13:05:00,
2013-09-21 08:10:00,49.9,47.7,29.81,NW,306,4.0,8.0,92,0.00,,,0.00,Wunderground v.1.15,2013-09-21 13:10:00,
2013-09-21 08:15:00,50.2,48.0,29.81,NW,313,5.0,8.0,92,0.00,,,0.00,Wunderground v.1.15,2013-09-21 13:15:00,
2013-09-21 08:20:00,50.5,48.3,29.81,NW,325,4.0,4.0,92,0.00,,,0.00,Wunderground v.1.15,2013-09-21 13:20:00,
2013-09-21 08:25:00,50.8,48.3,29.82,NW,315,4.0,8.0,91,0.00,,,0.00,Wunderground v.1.15,2013-09-21 13:25:00,
2013-09-21 08:30:00,50.9,48.4,29.81,NNW,330,5.0,5.0,91,0.00,,,0.00,Wunderground v.1.15,2013-09-21 13:30:00,
2013-09-21 08:35:00,51.2,48.4,29.81,NNW,329,5.0,8.0,90,0.00,,,0.00,Wunderground v.1.15,2013-09-21 13:35:00,
2013-09-21 08:40:00,51.5,48.7,29.81,North,360,6.0,8.0,90,0.00,,,0.00,Wunderground v.1.15,2013-09-21 13:40:00,
2013-09-21 08:45:00,51.8,48.7,29.81,North,355,5.0,8.0,89,0.00,,,0.00,Wunderground v.1.15,2013-09-21 13:45:00,
2013-09-21 08:50:00,52.1,49.0,29.81,WNW,303,5.0,8.0,89,0.00,,,0.00,Wunderground v.1.15,2013-09-21 13:50:00,
2013-09-21 08:55:00,52.2,48.8,29.82,NNW,348,6.0,8.0,88,0.00,,,0.00,Wunderground v.1.15,2013-09-21 13:55:00,
2013-09-21 09:00:00,52.4,48.9,29.82,NNW,335,6.0,6.0,88,0.00,,,0.00,Wunderground v.1.15,2013-09-21 14:00:00,
2013-09-21 09:05:00,52.8,49.0,29.82,NNW,336,5.0,8.0,87,0.00,,,0.00,Wunderground v.1.15,2013-09-21 14:05:00,
2013-09-21 09:10:00,53.4,49.3,29.82,NNW,340,5.0,8.0,86,0.00,,,0.00,Wunderground v.1.15,2013-09-21 14:10:00,
2013-09-21 09:15:00,53.7,49.0,29.82,NNW,344,6.0,9.0,84,0.00,,,0.00,Wunderground v.1.15,2013-09-21 14:15:00,
2013-09-21 09:20:00,54.1,48.7,29.82,NNW,329,7.0,7.0,82,0.00,,,0.00,Wunderground v.1.15,2013-09-21 14:20:00,
2013-09-21 09:25:00,54.5,48.8,29.82,North,360,8.0,8.0,81,0.00,,,0.00,Wunderground v.1.15,2013-09-21 14:25:00,
2013-09-21 09:30:00,54.5,47.8,29.82,NNW,338,8.0,10.0,78,0.00,,,0.00,Wunderground v.1.15,2013-09-21 14:30:00,
2013-09-21 09:35:00,54.7,48.0,29.82,North,355,9.0,10.0,78,0.00,,,0.00,Wunderground v.1.15,2013-09-21 14:35:00,
2013-09-21 09:45:00,55.0,47.6,29.82,NNE,28,8.0,9.0,76,0.00,,,0.00,Wunderground v.1.15,2013-09-21 14:45:00,
2013-09-21 09:50:00,54.8,47.7,29.82,NNW,327,8.0,9.0,77,0.00,,,0.00,Wunderground v.1.15,2013-09-21 14:50:00,
2013-09-21 09:55:00,54.8,47.4,29.82,North,355,9.0,10.0,76,0.00,,,0.00,Wunderground v.1.15,2013-09-21 14:55:00,
2013-09-21 10:00:00,54.8,47.4,29.82,NE,40,10.0,10.0,76,0.00,,,0.00,Wunderground v.1.15,2013-09-21 15:00:00,
2013-09-21 10:05:00,55.1,47.7,29.82,NE,34,9.0,10.0,76,0.00,,,0.00,Wunderground v.1.15,2013-09-21 15:05:00,
2013-09-21 10:10:00,55.6,48.2,29.82,NNE,23,8.0,10.0,76,0.00,,,0.00,Wunderground v.1.15,2013-09-21 15:10:00,
2013-09-21 10:15:00,55.7,47.5,29.82,NNW,332,8.0,10.0,74,0.00,,,0.00,Wunderground v.1.15,2013-09-21 15:15:00,
2013-09-21 10:25:00,54.9,46.4,29.83,North,351,8.0,11.0,73,0.00,,,0.00,Wunderground v.1.15,2013-09-21 15:25:00,
2013-09-21 10:30:00,54.9,46.4,29.83,NNW,347,8.0,11.0,73,0.00,,,0.00,Wunderground v.1.15,2013-09-21 15:30:00,
2013-09-21 10:35:00,55.1,46.2,29.83,NW,304,8.0,11.0,72,0.00,,,0.00,Wunderground v.1.15,2013-09-21 15:35:00,
2013-09-21 10:40:00,55.3,46.1,29.82,NNW,335,8.0,8.0,71,0.00,,,0.00,Wunderground v.1.15,2013-09-21 15:40:00,
2013-09-21 10:45:00,55.9,46.6,29.82,WNW,289,7.0,8.0,71,0.00,,,0.00,Wunderground v.1.15,2013-09-21 15:45:00,
2013-09-21 10:50:00,56.4,46.4,29.83,WNW,298,8.0,9.0,69,0.00,,,0.00,Wunderground v.1.15,2013-09-21 15:50:00,
2013-09-21 10:55:00,56.1,45.7,29.83,NNW,338,10.0,11.0,68,0.00,,,0.00,Wunderground v.1.15,2013-09-21 15:55:00,
2013-09-21 11:00:00,56.2,46.5,29.83,NW,304,10.0,10.0,70,0.00,,,0.00,Wunderground v.1.15,2013-09-21 16:00:00,
2013-09-21 11:05:00,56.3,46.3,29.83,NNW,344,9.0,10.0,69,0.00,,,0.00,Wunderground v.1.15,2013-09-21 16:05:00,
2013-09-21 11:10:00,55.7,45.3,29.83,NW,324,10.0,15.0,68,0.00,,,0.00,Wunderground v.1.15,2013-09-21 16:10:00,
2013-09-21 11:20:00,55.4,45.0,29.83,NNW,327,10.0,10.0,68,0.00,,,0.00,Wunderground v.1.15,2013-09-21 16:20:00,
2013-09-21 11:25:00,55.6,45.2,29.83,WNW,292,8.0,10.0,68,0.00,,,0.00,Wunderground v.1.15,2013-09-21 16:25:00,
2013-09-21 11:30:00,56.0,44.8,29.84,NW,313,8.0,14.0,66,0.00,,,0.00,Wunderground v.1.15,2013-09-21 16:30:00,
2013-09-21 11:35:00,56.9,45.3,29.83,NW,317,10.0,14.0,65,0.00,,,0.00,Wunderground v.1.15,2013-09-21 16:35:00,
2013-09-21 11:40:00,56.9,44.4,29.84,NW,320,10.0,16.0,63,0.00,,,0.00,Wunderground v.1.15,2013-09-21 16:40:00,
2013-09-21 11:45:00,56.8,44.7,29.84,NNW,331,12.0,16.0,64,0.00,,,0.00,Wunderground v.1.15,2013-09-21 16:45:00,
2013-09-21 11:50:00,56.2,44.6,29.84,North,350,11.0,11.0,65,0.00,,,0.00,Wunderground v.1.15,2013-09-21 16:50:00,
2013-09-21 11:55:00,56.2,44.2,29.84,NNW,333,10.0,11.0,64,0.00,,,0.00,Wunderground v.1.15,2013-09-21 16:55:00,
2013-09-21 12:05:00,56.2,44.2,29.84,North,9,10.0,12.0,64,0.00,,,0.00,Wunderground v.1.15,2013-09-21 17:05:00,
2013-09-21 12:15:00,55.9,43.5,29.84,WNW,298,11.0,14.0,63,0.00,,,0.00,Wunderground v.1.15,2013-09-21 17:15:00,
2013-09-21 12:20:00,56.1,43.3,29.84,NNW,338,10.0,10.0,62,0.00,,,0.00,Wunderground v.1.15,2013-09-21 17:20:00,
2013-09-21 12:30:00,56.4,43.5,29.85,North,355,9.0,9.0,62,0.00,,,0.00,Wunderground v.1.15,2013-09-21 17:30:00,
2013-09-21 12:40:00,56.5,42.8,29.85,NNE,12,10.0,11.0,60,0.00,,,0.00,Wunderground v.1.15,2013-09-21 17:40:00,
2013-09-21 12:45:00,56.5,42.8,29.85,North,355,9.0,11.0,60,0.00,,,0.00,Wunderground v.1.15,2013-09-21 17:45:00,
2013-09-21 12:50:00,56.4,42.2,29.85,NW,320,9.0,9.0,59,0.00,,,0.00,Wunderground v.1.15,2013-09-21 17:50:00,
2013-09-21 12:55:00,56.8,43.1,29.85,NW,317,8.0,9.0,60,0.00,,,0.00,Wunderground v.1.15,2013-09-21 17:55:00,
2013-09-21 13:05:00,57.0,43.2,29.85,NNE,16,10.0,12.0,60,0.00,,,0.00,Wunderground v.1.15,2013-09-21 18:05:00,
2013-09-21 13:10:00,56.6,43.3,29.85,NNW,346,10.0,10.0,61,0.00,,,0.00,Wunderground v.1.15,2013-09-21 18:10:00,
2013-09-21 13:15:00,56.5,43.2,29.85,NNE,22,9.0,10.0,61,0.00,,,0.00,Wunderground v.1.15,2013-09-21 18:15:00,
2013-09-21 13:25:00,57.1,43.3,29.85,NW,326,6.0,9.0,60,0.00,,,0.00,Wunderground v.1.15,2013-09-21 18:25:00,
2013-09-21 13:30:00,57.1,43.8,29.85,NNW,341,8.0,8.0,61,0.00,,,0.00,Wunderground v.1.15,2013-09-21 18:30:00,
2013-09-21 13:35:00,56.8,43.1,29.85,North,355,8.0,10.0,60,0.00,,,0.00,Wunderground v.1.15,2013-09-21 18:35:00,
2013-09-21 13:40:00,57.0,42.4,29.85,WNW,296,9.0,9.0,58,0.00,,,0.00,Wunderground v.1.15,2013-09-21 18:40:00,
2013-09-21 13:45:00,57.1,42.5,29.85,NNW,343,10.0,12.0,58,0.00,,,0.00,Wunderground v.1.15,2013-09-21 18:45:00,
2013-09-21 13:50:00,56.7,42.5,29.85,NW,325,10.0,11.0,59,0.00,,,0.00,Wunderground v.1.15,2013-09-21 18:50:00,
2013-09-21 13:55:00,56.4,42.7,29.86,WNW,296,9.0,11.0,60,0.00,,,0.00,Wunderground v.1.15,2013-09-21 18:55:00,
2013-09-21 14:00:00,56.5,42.3,29.86,NW,317,8.0,10.0,59,0.00,,,0.00,Wunderground v.1.15,2013-09-21 19:00:00,
2013-09-21 14:05:00,56.1,42.0,29.85,NW,317,9.0,10.0,59,0.00,,,0.00,Wunderground v.1.15,2013-09-21 19:05:00,
2013-09-21 14:10:00,56.2,42.1,29.86,NW,325,9.0,10.0,59,0.00,,,0.00,Wunderground v.1.15,2013-09-21 19:10:00,
2013-09-21 14:15:00,56.4,42.2,29.86,North,355,9.0,10.0,59,0.00,,,0.00,Wunderground v.1.15,2013-09-21 19:15:00,
2013-09-21 14:20:00,56.2,41.6,29.86,North,360,10.0,10.0,58,0.00,,,0.00,Wunderground v.1.15,2013-09-21 19:20:00,
2013-09-21 14:25:00,56.2,42.1,29.86,North,351,11.0,11.0,59,0.00,,,0.00,Wunderground v.1.15,2013-09-21 19:25:00,
2013-09-21 14:30:00,56.3,42.1,29.86,NNW,335,9.0,9.0,59,0.00,,,0.00,Wunderground v.1.15,2013-09-21 19:30:00,
2013-09-21 14:35:00,56.0,42.3,29.86,North,5,8.0,9.0,60,0.00,,,0.00,Wunderground v.1.15,2013-09-21 19:35:00,
2013-09-21 14:45:00,55.9,42.6,29.86,North,360,9.0,9.0,61,0.00,,,0.00,Wunderground v.1.15,2013-09-21 19:45:00,
2013-09-21 14:50:00,55.8,42.5,29.86,North,5,8.0,11.0,61,0.00,,,0.00,Wunderground v.1.15,2013-09-21 19:50:00,
2013-09-21 14:55:00,55.8,43.0,29.87,NNW,336,8.0,11.0,62,0.00,,,0.00,Wunderground v.1.15,2013-09-21 19:55:00,
2013-09-21 15:00:00,55.8,43.0,29.86,North,355,7.0,7.0,62,0.00,,,0.00,Wunderground v.1.15,2013-09-21 20:00:00,
2013-09-21 15:05:00,55.5,42.7,29.86,NW,320,7.0,8.0,62,0.00,,,0.00,Wunderground v.1.15,2013-09-21 20:05:00,
2013-09-21 15:10:00,55.5,43.5,29.86,NW,305,7.0,7.0,64,0.00,,,0.00,Wunderground v.1.15,2013-09-21 20:10:00,
2013-09-21 15:15:00,55.3,42.9,29.87,NNW,331,6.0,8.0,63,0.00,,,0.00,Wunderground v.1.15,2013-09-21 20:15:00,
2013-09-21 15:20:00,55.3,42.9,29.87,NW,313,7.0,8.0,63,0.00,,,0.00,Wunderground v.1.15,2013-09-21 20:20:00,
2013-09-21 15:25:00,55.3,43.3,29.87,NW,325,7.0,8.0,64,0.00,,,0.00,Wunderground v.1.15,2013-09-21 20:25:00,
2013-09-21 15:30:00,55.3,43.3,29.87,NW,304,7.0,9.0,64,0.00,,,0.00,Wunderground v.1.15,2013-09-21 20:30:00,
2013-09-21 15:35:00,55.0,43.0,29.87,NNW,338,7.0,9.0,64,0.00,,,0.00,Wunderground v.1.15,2013-09-21 20:35:00,
2013-09-21 15:45:00,55.1,43.5,29.86,West,270,6.0,8.0,65,0.00,,,0.00,Wunderground v.1.15,2013-09-21 20:45:00,
2013-09-21 15:50:00,55.1,43.9,29.87,NW,322,6.0,6.0,66,0.00,,,0.00,Wunderground v.1.15,2013-09-21 20:50:00,
2013-09-21 15:55:00,55.1,43.9,29.87,WNW,284,5.0,8.0,66,0.00,,,0.00,Wunderground v.1.15,2013-09-21 20:55:00,
2013-09-21 16:05:00,54.9,44.1,29.87,WNW,300,5.0,8.0,67,0.00,,,0.00,Wunderground v.1.15,2013-09-21 21:05:00,
2013-09-21 16:10:00,55.0,44.2,29.87,NW,325,5.0,8.0,67,0.00,,,0.00,Wunderground v.1.15,2013-09-21 21:10:00,
2013-09-21 16:15:00,54.8,44.4,29.87,NW,321,5.0,8.0,68,0.00,,,0.00,Wunderground v.1.15,2013-09-21 21:15:00,
2013-09-21 16:20:00,54.6,44.2,29.87,WNW,282,6.0,6.0,68,0.00,,,0.00,Wunderground v.1.15,2013-09-21 21:20:00,
2013-09-21 16:25:00,54.7,44.7,29.87,WNW,288,5.0,7.0,69,0.00,,,0.00,Wunderground v.1.15,2013-09-21 21:25:00,
2013-09-21 16:30:00,54.8,44.8,29.87,NNW,336,5.0,8.0,69,0.00,,,0.00,Wunderground v.1.15,2013-09-21 21:30:00,
2013-09-21 16:35:00,54.7,44.3,29.88,NW,318,5.0,8.0,68,0.00,,,0.00,Wunderground v.1.15,2013-09-21 21:35:00,
2013-09-21 16:40:00,54.8,44.8,29.88,NW,315,5.0,8.0,69,0.00,,,0.00,Wunderground v.1.15,2013-09-21 21:40:00,
2013-09-21 16:45:00,54.6,44.6,29.88,NNW,336,6.0,8.0,69,0.00,,,0.00,Wunderground v.1.15,2013-09-21 21:45:00,
2013-09-21 16:50:00,54.4,44.1,29.88,NW,309,7.0,8.0,68,0.00,,,0.00,Wunderground v.1.15,2013-09-21 21:50:00,
2013-09-21 16:55:00,54.4,44.1,29.88,North,355,6.0,8.0,68,0.00,,,0.00,Wunderground v.1.15,2013-09-21 21:55:00,
2013-09-21 17:00:00,54.3,43.6,29.88,NNE,27,6.0,8.0,67,0.00,,,0.00,Wunderground v.1.15,2013-09-21 22:00:00,
2013-09-21 17:05:00,54.4,44.1,29.89,NNW,340,6.0,8.0,68,0.00,,,0.00,Wunderground v.1.15,2013-09-21 22:05:00,
2013-09-21 17:10:00,54.4,43.7,29.89,North,9,5.0,8.0,67,0.00,,,0.00,Wunderground v.1.15,2013-09-21 22:10:00,
2013-09-21 17:15:00,54.2,43.9,29.89,NNW,342,6.0,8.0,68,0.00,,,0.00,Wunderground v.1.15,2013-09-21 22:15:00,
2013-09-21 17:20:00,54.2,44.2,29.89,NNW,332,5.0,8.0,69,0.00,,,0.00,Wunderground v.1.15,2013-09-21 22:20:00,
2013-09-21 17:25:00,54.1,43.8,29.89,NW,317,5.0,9.0,68,0.00,,,0.00,Wunderground v.1.15,2013-09-21 22:25:00,
2013-09-21 17:30:00,54.1,43.8,29.89,North,355,7.0,7.0,68,0.00,,,0.00,Wunderground v.1.15,2013-09-21 22:30:00,
2013-09-21 17:35:00,54.2,44.2,29.89,NNW,335,6.0,8.0,69,0.00,,,0.00,Wunderground v.1.15,2013-09-21 22:35:00,
2013-09-21 17:40:00,54.0,44.1,29.89,NNW,348,5.0,5.0,69,0.00,,,0.00,Wunderground v.1.15,2013-09-21 22:40:00,
2013-09-21 17:45:00,53.9,44.0,29.89,North,355,5.0,6.0,69,0.00,,,0.00,Wunderground v.1.15,2013-09-21 22:45:00,
2013-09-21 17:50:00,53.8,43.9,29.89,NE,44,6.0,8.0,69,0.00,,,0.00,Wunderground v.1.15,2013-09-21 22:50:00,
2013-09-21 18:00:00,53.4,43.5,29.89,NNW,346,7.0,7.0,69,0.00,,,0.00,Wunderground v.1.15,2013-09-21 23:00:00,
2013-09-21 18:05:00,53.3,43.4,29.90,NW,323,7.0,8.0,69,0.00,,,0.00,Wunderground v.1.15,2013-09-21 23:05:00,
2013-09-21 18:10:00,53.2,43.7,29.89,North,5,6.0,6.0,70,0.00,,,0.00,Wunderground v.1.15,2013-09-21 23:10:00,
2013-09-21 18:15:00,53.1,43.6,29.89,NNW,338,7.0,7.0,70,0.00,,,0.00,Wunderground v.1.15,2013-09-21 23:15:00,
2013-09-21 18:20:00,53.1,43.6,29.90,North,360,6.0,6.0,70,0.00,,,0.00,Wunderground v.1.15,2013-09-21 23:20:00,
2013-09-21 18:30:00,53.1,43.2,29.90,NNW,332,5.0,5.0,69,0.00,,,0.00,Wunderground v.1.15,2013-09-21 23:30:00,
2013-09-21 18:35:00,52.9,43.4,29.90,NNW,332,5.0,8.0,70,0.00,,,0.00,Wunderground v.1.15,2013-09-21 23:35:00,
2013-09-21 18:40:00,52.8,43.7,29.90,NNW,338,5.0,9.0,71,0.00,,,0.00,Wunderground v.1.15,2013-09-21 23:40:00,
2013-09-21 18:45:00,52.7,43.9,29.90,NNW,343,5.0,9.0,72,0.00,,,0.00,Wunderground v.1.15,2013-09-21 23:45:00,
2013-09-21 18:50:00,52.6,43.8,29.90,NW,320,5.0,8.0,72,0.00,,,0.00,Wunderground v.1.15,2013-09-21 23:50:00,
2013-09-21 18:55:00,52.4,44.0,29.90,NW,306,5.0,8.0,73,0.00,,,0.00,Wunderground v.1.15,2013-09-21 23:55:00,
2013-09-21 19:00:00,52.4,44.0,29.90,North,350,5.0,5.0,73,0.00,,,0.00,Wunderground v.1.15,2013-09-22 00:00:00,
2013-09-21 19:05:00,52.4,43.6,29.90,NNE,24,5.0,8.0,72,0.00,,,0.00,Wunderground v.1.15,2013-09-22 00:05:00,
2013-09-21 19:10:00,52.4,43.6,29.90,North,360,5.0,5.0,72,0.00,,,0.00,Wunderground v.1.15,2013-09-22 00:10:00,
2013-09-21 19:15:00,52.2,42.7,29.91,North,9,6.0,7.0,70,0.00,,,0.00,Wunderground v.1.15,2013-09-22 00:15:00,
2013-09-21 19:20:00,52.1,42.2,29.90,NNW,333,6.0,6.0,69,0.00,,,0.00,Wunderground v.1.15,2013-09-22 00:20:00,
2013-09-21 19:25:00,52.1,42.2,29.91,NNW,329,5.0,8.0,69,0.00,,,0.00,Wunderground v.1.15,2013-09-22 00:25:00,
2013-09-21 19:30:00,52.0,42.1,29.91,NW,323,4.0,4.0,69,0.00,,,0.00,Wunderground v.1.15,2013-09-22 00:30:00,
2013-09-21 19:35:00,51.8,41.9,29.91,NW,316,4.0,6.0,69,0.00,,,0.00,Wunderground v.1.15,2013-09-22 00:35:00,
2013-09-21 19:40:00,51.8,41.9,29.92,NW,324,5.0,8.0,69,0.00,,,0.00,Wunderground v.1.15,2013-09-22 00:40:00,
2013-09-21 19:45:00,51.8,41.9,29.92,North,5,5.0,8.0,69,0.00,,,0.00,Wunderground v.1.15,2013-09-22 00:45:00,
2013-09-21 19:50:00,51.7,41.9,29.92,North,349,5.0,8.0,69,0.00,,,0.00,Wunderground v.1.15,2013-09-22 00:50:00,
2013-09-21 19:55:00,51.6,41.8,29.92,NNW,335,5.0,8.0,69,0.00,,,0.00,Wunderground v.1.15,2013-09-22 00:55:00,
2013-09-21 20:00:00,51.6,41.8,29.92,NNW,327,5.0,5.0,69,0.00,,,0.00,Wunderground v.1.15,2013-09-22 01:00:00,
2013-09-21 20:05:00,51.5,41.7,29.93,NW,323,4.0,7.0,69,0.00,,,0.00,Wunderground v.1.15,2013-09-22 01:05:00,
2013-09-21 20:15:00,51.3,41.8,29.93,NNW,338,5.0,8.0,70,0.00,,,0.00,Wunderground v.1.15,2013-09-22 01:15:00,
2013-09-21 20:20:00,51.2,41.7,29.93,NNW,341,6.0,6.0,70,0.00,,,0.00,Wunderground v.1.15,2013-09-22 01:20:00,
2013-09-21 20:25:00,51.1,41.7,29.93,North,355,6.0,8.0,70,0.00,,,0.00,Wunderground v.1.15,2013-09-22 01:25:00,
2013-09-21 20:30:00,51.1,41.7,29.93,NNW,334,6.0,8.0,70,0.00,,,0.00,Wunderground v.1.15,2013-09-22 01:30:00,
2013-09-21 20:35:00,51.0,41.6,29.93,NW,320,6.0,8.0,70,0.00,,,0.00,Wunderground v.1.15,2013-09-22 01:35:00,
2013-09-21 20:40:00,50.9,41.1,29.93,NNW,339,6.0,8.0,69,0.00,,,0.00,Wunderground v.1.15,2013-09-22 01:40:00,
2013-09-21 20:45:00,50.8,41.0,29.94,NNW,337,6.0,8.0,69,0.00,,,0.00,Wunderground v.1.15,2013-09-22 01:45:00,
2013-09-21 20:50:00,50.8,41.4,29.94,North,350,5.0,5.0,70,0.00,,,0.00,Wunderground v.1.15,2013-09-22 01:50:00,
2013-09-21 20:55:00,50.7,41.3,29.94,NNW,328,4.0,8.0,70,0.00,,,0.00,Wunderground v.1.15,2013-09-22 01:55:00,
2013-09-21 21:00:00,50.6,41.2,29.94,NW,317,4.0,4.0,70,0.00,,,0.00,Wunderground v.1.15,2013-09-22 02:00:00,
2013-09-21 21:05:00,50.5,41.1,29.94,NW,312,5.0,5.0,70,0.00,,,0.00,Wunderground v.1.15,2013-09-22 02:05:00,
2013-09-21 21:10:00,50.5,41.4,29.94,NNW,337,4.0,8.0,71,0.00,,,0.00,Wunderground v.1.15,2013-09-22 02:10:00,
2013-09-21 21:15:00,50.3,41.3,29.94,NW,321,5.0,8.0,71,0.00,,,0.00,Wunderground v.1.15,2013-09-22 02:15:00,
2013-09-21 21:20:00,50.2,41.2,29.94,NW,309,6.0,6.0,71,0.00,,,0.00,Wunderground v.1.15,2013-09-22 02:20:00,
2013-09-21 21:25:00,50.2,41.2,29.94,NNW,333,5.0,8.0,71,0.00,,,0.00,Wunderground v.1.15,2013-09-22 02:25:00,
2013-09-21 21:30:00,50.2,41.5,29.95,NNW,344,5.0,5.0,72,0.00,,,0.00,Wunderground v.1.15,2013-09-22 02:30:00,
2013-09-21 21:40:00,50.2,41.5,29.95,NNW,331,4.0,8.0,72,0.00,,,0.00,Wunderground v.1.15,2013-09-22 02:40:00,
2013-09-21 21:45:00,50.2,41.2,29.95,NNW,347,5.0,8.0,71,0.00,,,0.00,Wunderground v.1.15,2013-09-22 02:45:00,
2013-09-21 21:50:00,50.1,41.4,29.95,NNE,22,6.0,6.0,72,0.00,,,0.00,Wunderground v.1.15,2013-09-22 02:50:00,
2013-09-21 22:00:00,50.0,41.3,29.96,North,5,4.0,8.0,72,0.00,,,0.00,Wunderground v.1.15,2013-09-22 03:00:00,
2013-09-21 22:05:00,49.9,41.6,29.95,North,360,5.0,8.0,73,0.00,,,0.00,Wunderground v.1.15,2013-09-22 03:05:00,
2013-09-21 22:10:00,49.9,41.6,29.96,NNE,23,4.0,4.0,73,0.00,,,0.00,Wunderground v.1.15,2013-09-22 03:10:00,
2013-09-21 22:15:00,49.7,41.4,29.96,North,355,4.0,8.0,73,0.00,,,0.00,Wunderground v.1.15,2013-09-22 03:15:00,
2013-09-21 22:20:00,49.6,41.7,29.96,NNE,28,3.0,8.0,74,0.00,,,0.00,Wunderground v.1.15,2013-09-22 03:20:00,
2013-09-21 22:25:00,49.6,41.7,29.96,NNE,13,3.0,8.0,74,0.00,,,0.00,Wunderground v.1.15,2013-09-22 03:25:00,
2013-09-21 22:30:00,49.5,41.6,29.96,NNE,33,3.0,8.0,74,0.00,,,0.00,Wunderground v.1.15,2013-09-22 03:30:00,
2013-09-21 22:35:00,49.5,41.6,29.96,NNE,32,2.0,8.0,74,0.00,,,0.00,Wunderground v.1.15,2013-09-22 03:35:00,
2013-09-21 22:40:00,49.5,41.6,29.96,NNE,32,2.0,2.0,74,0.00,,,0.00,Wunderground v.1.15,2013-09-22 03:40:00,
2013-09-21 22:45:00,49.5,41.2,29.96,NNE,15,3.0,4.0,73,0.00,,,0.00,Wunderground v.1.15,2013-09-22 03:45:00,
2013-09-21 22:50:00,49.5,41.2,29.96,NNE,19,3.0,8.0,73,0.00,,,0.00,Wunderground v.1.15,2013-09-22 03:50:00,
2013-09-21 22:55:00,49.6,41.3,29.96,NNE,28,3.0,8.0,73,0.00,,,0.00,Wunderground v.1.15,2013-09-22 03:55:00,
2013-09-21 23:00:00,49.3,41.0,29.96,North,11,3.0,8.0,73,0.00,,,0.00,Wunderground v.1.15,2013-09-22 04:00:00,
2013-09-21 23:05:00,49.0,40.7,29.96,NNE,30,3.0,8.0,73,0.00,,,0.00,Wunderground v.1.15,2013-09-22 04:05:00,
2013-09-21 23:10:00,48.4,40.5,29.96,NNE,30,1.0,1.0,74,0.00,,,0.00,Wunderground v.1.15,2013-09-22 04:10:00,
2013-09-21 23:15:00,47.7,40.2,29.96,NNE,30,0.0,8.0,75,0.00,,,0.00,Wunderground v.1.15,2013-09-22 04:15:00,
2013-09-21 23:20:00,47.4,40.6,29.97,NNE,30,0.0,8.0,77,0.00,,,0.00,Wunderground v.1.15,2013-09-22 04:20:00,
2013-09-21 23:25:00,46.8,40.3,29.97,NNE,30,0.0,8.0,78,0.00,,,0.00,Wunderground v.1.15,2013-09-22 04:25:00,
2013-09-21 23:30:00,46.2,40.0,29.97,NNE,30,0.0,8.0,79,0.00,,,0.00,Wunderground v.1.15,2013-09-22 04:30:00,
2013-09-21 23:35:00,45.7,39.6,29.97,NNE,30,0.0,8.0,79,0.00,,,0.00,Wunderground v.1.15,2013-09-22 04:35:00,
2013-09-21 23:40:00,45.2,39.4,29.97,NNE,30,0.0,8.0,80,0.00,,,0.00,Wunderground v.1.15,2013-09-22 04:40:00,
2013-09-21 23:45:00,44.7,38.9,29.97,NNE,30,0.0,8.0,80,0.00,,,0.00,Wunderground v.1.15,2013-09-22 04:45:00,
2013-09-21 23:50:00,44.2,38.7,29.97,NNE,30,0.0,8.0,81,0.00,,,0.00,Wunderground v.1.15,2013-09-22 04:50:00,
2013-09-21 23:55:00,44.0,39.2,29.97,NNE,30,0.0,8.0,83,0.00,,,0.00,Wunderground v.1.15,2013-09-22 04:55:00,